KINEIS-3A

Last updated on Wed Mar 11 2026 00:02:47 GMT+0000 (Coordinated Universal Time)

1 61223U 24172D 26069.21586634 .00002954 00000+0 47473-3 0 9995 2 61223 98.0282 160.3058 0002890 68.8327 291.3189 14.72340524 78214
UTC large
Height (km)
Speed (km/s)
/
Latitude / Longitude
Inclination (degrees)
Orbital Period (minutes)
Azimuth
Elevation
Range (km)
Doppler Factor

Next 0 passes for location: London (51.5072 / 0.1276)

Sorry there are no passes over London.